Location: Auckland
(36.8670°S, 174.7670°E)
Time: 10:51:59
(UTC+12:00)

Courier 1B Rocket - Pass Details

Date: 20 July 2019
Orbit: 920 x 1202 km, 28.3° (Epoch: 20 August)

Event Time Altitude Azimuth Distance (km) Brightness Sun altitude
Rises 07:01:22 0° 286° (WNW) 4,010 7.7 -5.9°
Reaches altitude 10° 07:04:23 10° 292° (WNW) 3,013 7.1 -5.3°
Maximum altitude 07:11:16 42° 0° (N) 1,488 6.2 -4.0°
Drops below altitude 10° 07:17:42 10° 69° (ENE) 2,816 9.5 -2.8°
Sets 07:20:27 0° 75° (ENE) 3,724 10.5 -2.3°
